STARLINK-1877 (47162 NORAD) Tracking and Keplerian Element Data

This shows tracking and keplerian element data for the satellite.

Feedback or suggestion? Click here.




ElementValue
Catalog47162
NameSTARLINK-1877
Epoch Orbit175
Epoch Day62.91667824
Epoch Year2021
RAAN244.7562
Inclination53.0532
Eccentricity0.0002231
Argument of Perigee95.0798
Mean Anonmoly182.9219
Mean Motion15.06386712
Decay Rate0.00036406
L11 47162U 20088AS 21062.91667824 .00036406 00000-0 24512-2 0 9997
L22 47162 53.0532 244.7562 0002231 95.0798 182.9219 15.06386712 1750

Live tracking and technical data element details for STARLINK-1877 (NORAD 47162). STARLINK-1877 can be tracked NOW for your location showing map with azimuth and elevation plus other details from your city location.

Track the satellite on the map from your city or location and see movement details for azimuth, elevation, latitude, longitude, range, height, and movement on the map or in text.







IsCatalogInMostPopularTable: catalog: 47162, numindb: 45
Update: records affected: 1



GetName: 47162 STARLINK-1877

Hit Count: updated at: Fri, 05 Mar 2021 07:48:17 GMT